Telluride, CO

4:24 PM MDT on June 19, 2018 (GMT -0600)
Telluride Regional

Weather History for KTEX - October, 2017

Change the Weather History Date:

Friday, October 13, 2017

  Actual Average Record
Temperature  
Mean Temperature 52 °F -  
Max Temperature 59 °F 52 °F 68 °F (2015)
Min Temperature 44 °F 32 °F 12 °F (1997)
Degree Days  
Heating Degree Days 14    
Growing Degree Days 2 (Base 50)    
Moisture  
Dew Point 12 °F    
Average Humidity 22    
Maximum Humidity 33    
Minimum Humidity 9    
Precipitation  
Precipitation 0.00 in - - ()
Sea Level Pressure  
Sea Level Pressure 30.29 in    
Wind  
Wind Speed 4 mph (South)    
Max Wind Speed 16 mph    
Max Gust Speed 30 mph    
Visibility 10 miles    
Events      
Averages and records for this station are not official NWS values.
T = Trace of Precipitation, MM = Missing Value Source: NWS Daily Summary

Daily Weather History Graph

Daily Weather History Graph

Search for Another Location

Airport or City:

Astronomy

Oct. 13, 2017 Rise Set
Actual Time 7:18 AM MDT 6:36 PM MDT
Civil Twilight 6:52 AM MDT 7:02 PM MDT
Nautical Twilight 6:21 AM MDT 7:33 PM MDT
Astronomical Twilight 5:51 AM MDT 8:03 PM MDT
Moon 12:51 AM MDT (10/13) 3:17 PM MDT (10/13)
Length of Visible Light 12h 10m
Length of Day
11h 17m
Last Quarter, 36% of the Moon is Illuminated
Oct 13
Last Quarter
Oct 19
New
Oct 27
First Quarter
Nov 3
Full
Nov 10
Last Quarter

Hourly Weather History & Observations

Time (MDT) Temp. Windchill Dew Point Humidity Pressure Visibility Wind Dir Wind Speed Gust Speed Precip Events Conditions
12:15 AM 47.3 °F - 16.5 °F 29% 30.29 in 10.0 mi Calm Calm - N/A   Clear
12:35 AM 46.4 °F 45.2 °F 16.5 °F 30% 30.29 in 10.0 mi NE 3.5 mph - N/A   Clear
12:55 AM 47.1 °F - 17.2 °F 30% 30.29 in 10.0 mi SE 4.6 mph - N/A   Clear
1:15 AM 46.6 °F - 17.1 °F 31% 30.29 in 10.0 mi Calm Calm - N/A   Clear
1:35 AM 45.3 °F - 17.6 °F 33% 30.29 in 10.0 mi Calm Calm - N/A   Clear
1:55 AM 45.9 °F - 17.1 °F 32% 30.30 in 10.0 mi Calm Calm - N/A   Clear
2:15 AM 45.7 °F - 16.5 °F 31% 30.30 in 10.0 mi Calm Calm - N/A   Clear
2:35 AM 46.4 °F 45.2 °F 16.7 °F 31% 30.30 in 10.0 mi ESE 3.5 mph - N/A   Clear
2:55 AM 45.9 °F 43.6 °F 17.2 °F 32% 30.30 in 10.0 mi SSE 4.6 mph - N/A   Clear
3:15 AM 45.3 °F - 17.6 °F 33% 30.30 in 10.0 mi Calm Calm - N/A   Clear
3:35 AM 46.4 °F - 16.5 °F 30% 30.30 in 10.0 mi Calm Calm - N/A   Clear
3:55 AM 45.5 °F - 16.2 °F 31% 30.30 in 10.0 mi Calm Calm - N/A   Clear
4:15 AM 45.7 °F 43.4 °F 15.4 °F 30% 30.30 in 10.0 mi NE 4.6 mph - N/A   Clear
4:35 AM 44.8 °F - 15.4 °F 31% 30.30 in 10.0 mi Calm Calm - N/A   Clear
4:55 AM 45.3 °F - 14.5 °F 29% 30.30 in 10.0 mi Calm Calm - N/A   Clear
5:15 AM 44.6 °F - 14.2 °F 29% 30.30 in 10.0 mi Calm Calm - N/A   Clear
5:35 AM 44.8 °F 43.3 °F 14.0 °F 29% 30.30 in 10.0 mi NE 3.5 mph - N/A   Clear
5:55 AM 45.0 °F 43.5 °F 13.6 °F 28% 30.30 in 10.0 mi NE 3.5 mph - N/A   Clear
6:15 AM 45.5 °F - 12.7 °F 27% 30.31 in 10.0 mi Calm Calm - N/A   Clear
6:35 AM 45.1 °F - 12.7 °F 27% 30.31 in 10.0 mi Calm Calm - N/A   Clear
6:55 AM 45.0 °F - 12.4 °F 27% 30.31 in 10.0 mi Calm Calm - N/A   Clear
7:15 AM 45.3 °F - 12.2 °F 26% 30.32 in 10.0 mi Calm Calm - N/A   Clear
7:35 AM 44.8 °F - 12.0 °F 27% 30.32 in 10.0 mi Calm Calm - N/A   Clear
7:55 AM 45.9 °F - 11.8 °F 25% 30.32 in 10.0 mi Calm Calm - N/A   Clear
8:15 AM 46.4 °F - 12.9 °F 26% 30.32 in 10.0 mi Calm Calm - N/A   Clear
8:35 AM 47.5 °F - 15.3 °F 28% 30.33 in 10.0 mi Calm Calm - N/A   Clear
8:55 AM 50.0 °F - 14.5 °F 24% 30.33 in 10.0 mi ESE 3.5 mph - N/A   Clear
9:15 AM 51.8 °F - 15.1 °F 23% 30.33 in 10.0 mi ESE 5.8 mph - N/A   Clear
9:55 AM 53.6 °F - 9.9 °F 17% 30.33 in 10.0 mi South 3.5 mph - N/A   Clear
10:15 AM 54.5 °F - 7.9 °F 15% 30.33 in 10.0 mi SSW 10.4 mph 17.3 mph N/A   Clear
10:35 AM 55.0 °F - 6.8 °F 14% 30.33 in 10.0 mi SE 4.6 mph - N/A   Clear
10:55 AM 55.4 °F - 3.6 °F 12% 30.32 in 10.0 mi South 15.0 mph 25.3 mph N/A   Clear
11:15 AM 56.1 °F - 1.8 °F 11% 30.32 in 10.0 mi SSW 5.8 mph 19.6 mph N/A   Clear
11:35 AM 56.8 °F - 1.9 °F 11% 30.32 in 10.0 mi West 5.8 mph - N/A   Clear
11:55 AM 58.1 °F - -0.6 °F 9% 30.32 in 10.0 mi WSW 11.5 mph 17.3 mph N/A   Clear
12:15 PM 58.1 °F - -1.8 °F 9% 30.32 in 10.0 mi SW 10.4 mph 26.5 mph N/A   Clear
12:35 PM 58.3 °F - -1.8 °F 9% 30.31 in 10.0 mi SW 8.1 mph 24.2 mph N/A   Clear
12:55 PM 59.0 °F - 0.7 °F 10% 30.30 in 10.0 mi WSW 16.1 mph 23.0 mph N/A   Clear
1:15 PM 59.4 °F - 1.2 °F 10% 30.29 in 10.0 mi SSE 10.4 mph 23.0 mph N/A   Clear
1:35 PM 59.0 °F - 3.0 °F 11% 30.28 in 10.0 mi SW 11.5 mph 23.0 mph N/A   Clear
1:55 PM 58.8 °F - 4.8 °F 12% 30.28 in 10.0 mi West 13.8 mph 23.0 mph N/A   Clear
2:35 PM 59.9 °F - 6.4 °F 12% 30.26 in 10.0 mi WSW 13.8 mph 23.0 mph N/A   Clear
2:55 PM 59.9 °F - 8.1 °F 13% 30.26 in 10.0 mi SSW 12.7 mph 20.7 mph N/A   Clear
3:15 PM 59.7 °F - 5.4 °F 11% 30.26 in 10.0 mi West 15.0 mph 23.0 mph N/A   Clear
3:35 PM 59.2 °F - 4.3 °F 11% 30.26 in 10.0 mi SW 11.5 mph 23.0 mph N/A   Clear
3:55 PM 59.5 °F - 5.7 °F 12% 30.26 in 10.0 mi West 13.8 mph 21.9 mph N/A   Clear
4:15 PM 59.2 °F - 5.4 °F 12% 30.26 in 10.0 mi WSW 15.0 mph 21.9 mph N/A   Clear
4:35 PM 58.8 °F - 7.2 °F 13% 30.26 in 10.0 mi West 8.1 mph 17.3 mph N/A   Clear
4:55 PM 59.0 °F - 6.8 °F 13% 30.26 in 10.0 mi West 6.9 mph 17.3 mph N/A   Clear
5:15 PM 58.1 °F - 8.1 °F 14% 30.26 in 10.0 mi SW 10.4 mph - N/A   Clear
5:35 PM 57.2 °F - 9.7 °F 15% 30.25 in 10.0 mi SSE 12.7 mph 21.9 mph N/A   Clear
5:55 PM 56.5 °F - 11.3 °F 17% 30.25 in 10.0 mi SSE 13.8 mph 23.0 mph N/A   Clear
6:15 PM 55.6 °F - 12.4 °F 18% 30.25 in 10.0 mi SSE 15.0 mph 24.2 mph N/A   Clear
6:35 PM 55.0 °F - 14.2 °F 20% 30.25 in 10.0 mi South 15.0 mph 29.9 mph N/A   Clear
6:55 PM 54.5 °F - 16.0 °F 22% 30.26 in 10.0 mi SSE 10.4 mph 25.3 mph N/A   Clear
7:15 PM 54.0 °F - 17.8 °F 24% 30.26 in 10.0 mi SE 15.0 mph 27.6 mph N/A   Clear
7:35 PM 53.8 °F - 19.0 °F 26% 30.27 in 10.0 mi SE 9.2 mph 27.6 mph N/A   Clear
8:15 PM 52.3 °F - 20.1 °F 28% 30.26 in 10.0 mi SE 10.4 mph - N/A   Clear
8:35 PM 52.0 °F - 20.1 °F 29% 30.25 in 10.0 mi ESE 10.4 mph 16.1 mph N/A   Clear
8:55 PM 52.0 °F - 20.3 °F 29% 30.26 in 10.0 mi ESE 8.1 mph - N/A   Clear
9:15 PM 51.1 °F - 20.3 °F 30% 30.26 in 10.0 mi Calm Calm - N/A   Clear
9:35 PM 52.2 °F - 19.9 °F 28% 30.25 in 10.0 mi SE 3.5 mph - N/A   Clear
9:55 PM 52.5 °F - 20.3 °F 28% 30.25 in 10.0 mi SSE 8.1 mph - N/A   Clear
10:15 PM 52.7 °F - 20.3 °F 28% 30.25 in 10.0 mi South 5.8 mph 9.2 mph N/A   Clear
10:55 PM 52.5 °F - 19.9 °F 28% 30.25 in 10.0 mi South 5.8 mph - N/A   Clear
11:35 PM 52.5 °F - 19.4 °F 27% 30.24 in 10.0 mi South 4.6 mph 21.9 mph N/A   Clear
11:55 PM 52.0 °F - 19.6 °F 28% 30.24 in 10.0 mi South 9.2 mph - N/A   Clear